Location: Courçay
(47.2523°N, 0.8761°E)
Time: 02:10:38
(UTC+00:00)

Meteor 2-3 Rocket - Pass Details

Date: 18 November 2025
Orbit: 841 x 884 km, 81.2° (Epoch: 04 December)

Event Time Altitude Azimuth Distance (km) Brightness Sun altitude
Rises 18:29:37 0° 349° (N) 3,464 7.0 -22.1°
Reaches altitude 10° 18:32:05 10° 351° (N) 2,515 6.2 -22.5°
Maximum altitude 18:37:48 79° 78° (ENE) 877 3.6 -23.5°
Drops below altitude 10° 18:43:25 10° 166° (SSE) 2,469 6.0 -24.5°
Sets 18:45:49 0° 167° (SSE) 3,395 6.7 -24.9°
